Location: Earls Croome
(52.0667°N, 2.2000°W)
Time: 12:36:14
(UTC+00:00)

COSMOS 2455 - Pass Details

Date: 24 February 2020
Orbit: 901 x 909 km, 67.2° (Epoch: 05 April)

Event Time Altitude Azimuth Distance (km) Brightness Sun altitude
Exits shadow 01:50:16 18° 14° (NNE) 2,099 5.2 -44.0°
Drops below altitude 10° 01:52:50 10° 37° (NE) 2,601 5.8 -43.8°
Sets 01:56:06 0° 55° (NE) 3,544 6.6 -43.5°
